Wind_Speed
68 70 72 73 73 73 74 74 75 75 75 75 75 76 77 76 75 74 75 76 77 78 80 82 81 78 76 75 76 76 76 75 74 74 73 72 73 73 74 74 73 72 71 70 69 69 68 66 65 65 67 68 67 68 68 69 69 68 67 66 65 64 64 63 63 63 62 60 60 59 58 57 56 55 55 55 56 57 57 57 57 56 55 53 52
70 71 73 74 75 75 76 77 78 78 78 78 78 79 79 78 75 74 74 77 79 80 83 86 86 83 79 76 75 76 76 76 75 74 73 72 72 73 73 74 74 73 72 70 69 69 68 68 66 66 68 69 68 69 70 71 71 70 68 67 66 64 64 64 65 65 63 62 61 61 59 58 57 56 56 57 57 57 58 58 58 57 56 55 54
72 74 76 77 77 78 79 80 81 81 81 80 80 79 80 81 79 78 79 81 82 82 84 87 88 86 84 81 79 77 76 76 76 76 74 73 72 72 72 73 73 73 73 71 70 69 69 69 68 68 69 70 69 71 72 73 73 71 69 68 67 65 65 65 67 67 65 63 63 62 61 59 58 57 57 57 58 58 58 58 58 58 57 56 55
73 75 77 77 77 78 80 82 83 84 83 81 79 77 77 79 80 82 84 85 83 82 84 86 88 88 86 84 83 80 78 76 76 76 76 75 74 72 71 71 72 73 73 72 71 70 70 69 70 70 71 71 71 73 74 75 74 72 70 68 67 67 66 67 69 68 66 64 64 62 60 58 56 55 55 56 57 57 57 58 58 58 58 57 55
71 73 74 73 73 74 77 80 83 85 86 86 84 81 79 80 81 84 85 86 86 86 86 87 88 88 87 85 83 82 81 80 79 78 77 76 75 74 73 71 71 71 72 72 71 71 71 70 71 72 73 73 74 76 77 77 75 73 71 69 68 69 69 69 70 69 67 65 63 61 59 57 54 52 52 53 54 56 56 57 58 58 58 57 55
75 75 76 76 76 77 78 80 82 84 86 87 87 86 85 86 87 88 88 86 86 87 87 87 87 87 85 83 80 78 77 78 79 79 79 78 76 75 74 73 72 71 71 71 71 71 71 71 72 74 75 75 76 78 78 79 78 76 74 71 70 70 70 70 70 70 67 65 63 60 58 56 54 53 53 53 53 54 55 56 57 58 58 57 55
85 85 85 84 84 85 86 87 89 89 90 90 90 89 89 89 90 91 92 91 88 87 87 88 88 88 88 86 84 81 78 77 77 77 77 77 77 77 75 74 73 73 72 72 72 72 72 72 74 76 77 78 79 80 80 80 79 78 76 74 72 71 71 70 70 70 68 65 62 59 57 56 56 54 54 54 54 54 54 55 57 58 57 56 56
91 92 92 92 92 92 93 94 95 96 97 97 96 95 95 94 94 94 95 96 94 92 91 90 90 90 91 91 91 89 86 84 82 80 78 77 77 78 78 76 74 73 73 74 74 74 74 75 76 78 79 80 81 82 82 82 81 80 78 76 74 74 73 71 69 68 66 64 62 59 57 56 56 55 56 57 56 55 56 57 58 58 58 56 55
95 96 96 97 97 97 97 98 99 99 100 100 100 99 98 98 98 98 99 100 100 99 97 96 95 94 94 93 93 93 91 90 88 86 83 80 78 78 78 79 78 76 75 75 76 76 76 77 78 80 81 82 83 84 85 85 84 81 78 78 78 76 72 68 66 65 64 63 62 60 57 55 55 55 57 59 59 59 59 59 59 58 57 56 54
99 100 100 101 101 101 101 101 100 100 100 100 100 100 100 99 99 99 100 100 101 101 100 99 99 99 99 98 97 94 93 92 91 90 87 85 82 80 79 80 81 81 78 77 77 78 79 79 80 81 83 84 86 87 88 87 85 83 82 82 81 75 69 66 64 63 63 63 63 62 60 58 58 59 60 61 62 62 61 61 59 58 57 56 55
100 101 101 102 103 103 103 102 101 100 100 99 99 99 99 99 98 98 99 99 99 100 100 100 99 99 100 101 100 97 94 92 91 91 91 90 88 86 83 81 82 83 83 81 80 80 81 82 82 83 85 87 88 90 90 90 88 86 85 82 78 72 67 65 64 63 65 66 67 68 67 66 65 65 64 64 64 64 63 62 61 60 59 58 57
100 100 101 101 102 101 101 101 100 99 99 99 99 99 99 99 98 98 99 99 99 100 100 101 100 99 99 100 101 100 97 94 92 92 92 92 92 91 89 86 84 84 84 85 84 83 83 83 84 85 86 87 89 89 88 87 85 83 81 78 75 71 68 65 64 65 67 69 71 72 72 71 70 68 66 65 66 66 65 63 63 63 61 60 59
100 100 101 102 102 102 102 102 101 101 101 101 102 102 102 102 102 102 102 101 101 101 101 102 102 102 101 100 101 101 100 97 96 95 94 93 94 94 93 91 88 86 86 86 87 86 86 85 86 86 87 87 88 88 86 85 84 83 82 80 77 73 70 68 68 69 71 73 75 75 75 74 72 69 66 67 68 69 67 65 64 63 62 62 62
100 101 102 103 104 104 105 105 105 105 105 105 106 106 106 106 106 106 107 107 106 105 105 104 104 104 104 103 103 102 102 101 100 99 99 97 96 96 96 95 93 91 88 88 88 88 89 89 88 88 89 90 90 91 90 90 90 89 88 86 83 80 77 76 75 76 77 77 78 78 78 78 77 72 70 70 70 70 70 68 66 65 64 64 63
101 102 103 104 105 105 106 107 107 108 108 108 109 109 109 110 110 110 111 111 111 111 110 109 108 108 107 107 107 105 104 103 104 103 103 102 101 100 99 99 98 96 93 90 89 89 90 92 92 91 91 92 92 93 93 93 93 94 93 91 88 86 85 84 83 82 82 80 80 80 81 82 81 78 75 74 72 72 71 70 69 68 66 64 62
99 101 102 103 104 105 105 106 107 108 108 109 109 109 110 110 111 111 112 113 114 114 115 115 114 113 111 110 110 109 107 107 107 107 107 106 105 104 103 102 101 100 97 94 92 91 91 92 93 94 94 94 93 94 94 94 94 93 92 90 90 90 89 87 86 85 83 82 82 83 83 84 84 83 80 78 75 74 73 72 71 71 69 65 61
95 96 97 99 100 101 102 103 104 105 105 105 106 106 107 107 108 108 110 111 113 114 115 116 117 117 116 115 113 112 111 109 109 109 110 110 109 108 106 105 104 103 101 97 94 92 92 92 92 94 95 95 94 95 96 97 97 95 93 92 92 91 89 86 84 83 82 82 83 84 85 86 86 85 84 82 78 75 74 74 73 72 70 66 63
89 90 92 93 94 95 96 97 98 99 100 100 100 101 102 103 104 104 105 107 108 110 112 113 114 116 116 117 116 115 113 111 110 109 110 112 113 112 110 108 106 105 104 102 99 95 93 93 93 93 94 95 96 97 98 98 99 98 96 94 93 91 87 83 81 80 80 80 81 83 84 85 85 85 85 84 81 78 77 76 74 72 71 68 66
84 86 87 88 89 91 92 93 94 95 96 96 96 97 97 98 99 100 101 102 102 104 105 107 109 111 112 113 114 114 114 112 110 109 109 110 111 114 115 113 109 106 105 104 104 101 96 94 93 94 94 94 96 99 101 100 100 99 97 96 96 92 88 83 81 81 81 80 79 80 81 81 81 82 82 83 83 81 80 77 75 72 71 69 67
84 85 86 87 87 88 89 90 91 91 92 92 93 93 93 94 94 94 96 97 97 98 98 100 101 103 104 106 108 109 111 111 109 107 107 108 108 110 114 115 113 110 107 105 105 105 102 99 95 94 93 94 95 98 101 102 102 101 100 99 95 90 86 82 80 80 80 80 78 78 78 78 78 79 80 82 83 83 81 79 76 73 70 68 66
84 84 85 85 86 86 87 88 88 89 90 91 91 91 91 91 92 92 92 93 94 94 94 95 96 96 96 97 99 101 103 104 104 103 102 104 105 106 109 113 114 113 111 108 105 105 105 103 100 96 95 96 96 97 98 99 99 100 99 96 90 86 84 82 80 79 79 79 78 78 78 77 77 77 78 80 79 79 79 77 74 71 68 66 65
85 85 85 85 86 86 86 87 88 89 89 90 90 90 90 90 91 91 91 92 92 92 92 92 93 93 92 92 94 95 96 97 98 98 97 97 100 102 104 108 111 113 113 112 108 105 104 105 104 101 98 98 98 99 99 99 100 99 96 92 88 85 85 84 83 82 81 81 80 79 77 76 75 75 76 76 73 72 71 70 69 69 69 69 69
85 86 86 86 87 87 87 87 88 88 89 89 90 90 89 90 91 91 91 92 92 91 91 92 92 93 92 91 91 91 92 93 93 93 92 92 93 96 99 102 105 108 111 112 110 107 104 104 105 105 102 100 100 100 100 101 100 98 94 91 89 87 87 88 88 87 84 82 82 81 78 76 74 73 74 74 71 68 67 69 70 71 71 70 69
86 86 86 86 87 87 87 86 86 87 87 87 87 87 87 88 88 88 88 88 88 88 88 89 90 91 90 90 90 90 90 91 92 91 90 89 90 91 93 96 98 102 105 108 109 108 105 103 104 106 107 104 102 101 101 100 100 98 95 93 91 90 90 91 90 88 84 82 81 80 78 75 73 73 74 74 72 69 70 72 74 72 70 68 66
85 85 85 85 85 85 84 83 83 82 82 82 82 81 80 79 77 77 77 78 79 80 81 81 83 85 86 87 87 87 88 90 91 91 89 88 88 88 90 92 94 96 98 102 104 105 105 103 102 104 106 107 106 105 102 99 98 97 97 96 94 91 91 91 89 86 83 80 78 78 77 75 74 74 75 76 75 73 74 74 73 70 67 65 64
83 83 82 82 81 81 80 79 77 76 74 73 72 71 69 68 67 68 69 70 71 71 72 73 74 76 79 81 82 83 84 86 88 88 88 88 88 88 89 90 91 93 94 95 97 99 101 101 101 101 102 104 106 107 106 102 98 95 95 96 94 91 89 89 88 85 81 77 77 78 78 76 75 75 77 78 79 77 76 74 71 68 65 64 63
80 79 78 77 76 75 73 71 69 66 65 64 64 64 64 64 64 65 67 68 68 68 68 68 68 69 70 72 74 76 78 80 82 83 84 85 86 87 88 89 90 92 92 92 92 93 94 97 98 98 99 100 101 103 105 104 101 97 94 93 92 90 88 88 86 82 78 76 77 78 79 80 80 79 79 80 80 78 76 74 70 67 65 65 65
74 73 72 71 69 68 65 63 61 60 60 60 60 60 60 61 62 63 64 66 67 67 67 67 66 66 65 65 66 67 70 72 75 76 78 80 82 84 85 86 88 91 91 89 88 88 90 92 94 94 95 95 96 98 100 102 102 100 97 95 93 91 89 88 85 81 78 76 77 78 79 80 81 80 80 80 79 78 76 74 71 69 67 67 67
68 68 67 65 63 62 61 60 59 58 57 57 57 57 58 60 61 62 63 64 64 64 64 65 65 64 63 61 60 60 61 62 65 69 72 74 76 79 80 81 84 88 89 88 87 87 88 89 90 90 89 89 90 91 94 96 97 98 98 97 96 94 90 87 84 81 78 76 77 78 79 79 80 81 80 78 76 75 74 73 72 70 69 68 68
65 64 63 62 60 59 58 56 55 54 54 54 55 56 57 59 61 62 62 62 62 61 60 60 62 62 61 58 57 56 54 55 57 61 64 67 69 72 74 76 78 82 86 87 88 88 87 86 86 85 84 82 82 85 88 91 93 94 95 96 95 94 90 85 82 79 78 76 76 77 79 80 80 80 78 73 70 69 69 69 68 68 67 68 69
63 62 62 60 57 54 52 50 50 51 52 54 55 55 56 57 58 60 60 60 60 59 58 57 58 58 58 56 54 53 51 51 53 56 58 60 62 64 67 69 72 76 81 85 87 88 86 84 82 80 79 77 76 78 82 86 87 88 90 91 91 90 87 83 80 79 79 77 75 76 79 80 79 78 75 69 64 64 64 64 65 66 67 68 69
62 61 59 55 50 46 45 46 48 50 51 52 53 53 53 53 53 54 55 55 55 55 56 55 55 56 55 54 53 52 51 51 52 53 54 56 57 58 60 63 66 69 75 82 86 86 84 81 78 76 76 75 72 73 77 80 81 83 84 85 85 84 82 80 78 78 78 78 77 78 79 80 78 76 71 67 64 64 65 65 66 67 67 67 66
59 58 54 48 42 41 43 45 47 49 49 50 51 52 53 53 53 53 53 53 53 53 53 52 52 51 51 50 49 49 49 50 50 51 52 53 54 55 56 57 60 64 71 78 82 83 81 78 75 74 75 74 71 71 75 77 77 79 80 80 81 80 79 78 77 77 78 79 80 81 81 80 78 75 70 67 65 66 67 67 66 65 64 64 64
54 53 47 42 39 39 42 44 46 47 48 49 50 52 54 55 54 53 52 51 51 51 51 51 51 49 47 47 46 46 46 47 48 48 49 50 52 53 53 54 56 60 67 74 78 78 78 76 73 72 75 75 71 71 73 75 75 76 77 77 78 78 76 75 75 76 78 80 81 82 81 79 77 75 71 68 66 66 68 68 66 65 64 64 63
50 47 42 38 37 39 41 43 45 46 46 48 50 52 52 52 50 49 48 47 46 46 47 48 49 49 48 46 45 45 45 44 44 45 46 47 49 51 53 53 54 58 63 69 73 74 75 74 72 71 74 76 73 71 72 73 72 72 73 73 74 75 75 75 75 76 78 81 82 82 80 77 75 74 72 70 69 69 70 68 66 65 65 65 64
47 45 40 37 37 38 41 43 44 44 44 46 49 49 47 46 45 44 44 43 41 41 41 42 42 43 43 43 42 41 42 42 42 42 42 44 46 48 50 51 51 54 59 64 67 70 72 72 71 71 74 77 76 73 73 72 70 68 68 68 68 70 72 73 74 75 76 78 78 77 76 74 73 72 71 71 70 69 68 67 65 66 66 66 64
45 44 41 37 36 37 40 41 42 42 42 43 45 45 44 42 41 42 42 41 39 38 37 37 37 37 37 37 36 36 37 38 39 40 40 41 43 45 47 47 48 51 54 58 63 67 69 69 70 71 74 77 78 76 74 73 70 67 66 65 64 64 65 66 68 70 71 72 71 70 69 68 68 69 68 67 67 67 66 66 66 66 67 66 65
42 43 41 38 36 36 38 39 39 39 39 40 41 42 42 41 39 39 40 40 38 36 35 34 34 34 34 34 33 33 33 34 36 37 38 38 40 42 43 44 46 47 49 53 59 64 66 67 69 71 74 76 78 78 76 74 71 69 68 66 64 63 63 62 62 63 64 64 64 64 63 62 63 63 62 61 62 63 64 65 65 65 65 64 63
39 41 41 40 37 35 36 37 37 37 37 37 37 38 40 39 37 36 37 39 37 34 32 32 31 31 32 32 32 32 32 33 33 34 35 36 37 38 39 41 43 44 45 50 56 61 64 65 68 71 73 75 77 78 78 76 74 71 70 69 67 67 65 62 60 59 58 57 58 59 59 58 58 57 56 56 57 58 59 60 61 61 61 61 61
35 37 40 41 39 37 36 36 36 36 35 34 35 36 37 36 35 34 35 37 38 35 31 29 29 28 28 29 30 30 31 31 31 31 32 32 33 34 37 39 41 41 42 47 53 58 61 63 66 69 72 74 76 77 77 76 74 72 70 69 69 69 67 64 61 59 58 56 56 56 56 56 56 55 55 55 56 56 56 57 58 58 58 58 59
33 35 37 39 39 38 36 35 35 35 34 33 34 36 36 35 34 33 33 34 35 35 34 31 28 27 25 25 26 26 27 28 28 27 27 27 28 31 34 36 37 37 39 44 50 55 58 60 64 67 69 71 74 75 75 74 73 72 70 68 68 68 67 66 64 63 61 59 57 56 56 57 58 57 57 56 55 55 55 55 56 56 56 56 57
32 33 34 36 37 37 36 34 34 33 32 32 33 35 35 34 33 32 32 31 31 31 33 33 31 28 25 23 22 22 22 23 23 23 22 22 24 27 30 32 33 34 37 41 47 51 54 57 61 64 66 68 70 71 71 71 70 70 69 67 65 65 65 65 65 65 64 63 61 60 60 61 61 61 60 58 57 56 56 55 55 56 56 56 56
32 33 34 34 35 36 36 36 35 33 32 32 32 33 34 34 33 31 31 30 29 29 29 29 30 30 28 25 22 20 19 19 18 18 18 17 19 21 24 26 28 31 34 39 44 47 51 54 58 61 63 65 67 68 68 68 69 69 69 67 65 64 63 63 63 63 63 63 63 63 63 64 64 64 63 61 59 58 58 57 57 57 57 56 57
32 34 34 34 35 35 35 35 35 35 33 32 31 31 31 32 32 31 30 29 28 28 26 25 26 27 27 26 23 20 18 17 16 15 14 14 15 16 18 20 23 27 31 35 40 43 46 50 54 57 59 61 63 64 65 66 67 67 67 67 65 63 62 62 62 62 62 62 62 62 63 63 64 64 63 61 60 59 59 59 58 58 58 59 59
32 34 34 34 35 35 35 35 35 35 34 34 32 31 30 31 31 30 29 27 27 27 25 23 23 23 24 24 23 21 18 16 15 14 13 12 13 13 15 17 19 23 27 31 35 38 41 44 48 51 54 55 57 59 62 64 64 64 64 64 64 63 62 63 62 62 62 61 61 61 62 63 63 62 61 60 59 60 60 61 61 61 61 62 62
32 34 35 35 35 35 36 36 35 35 34 34 34 33 32 31 30 30 29 27 26 25 24 22 21 22 22 21 20 19 19 17 14 13 12 11 11 12 13 15 17 20 23 26 29 32 35 38 41 45 47 50 52 55 59 61 62 62 62 61 61 61 62 62 62 62 61 61 62 62 62 62 62 61 61 60 61 61 62 63 63 63 63 63 63
33 34 35 36 36 36 36 36 36 36 36 35 34 34 33 33 31 30 29 28 26 25 23 20 19 19 20 19 18 17 16 16 16 14 12 10 9 10 11 13 15 17 19 22 24 26 28 31 34 37 40 44 47 51 54 57 59 60 60 59 59 58 59 59 59 59 58 59 59 61 61 61 61 60 59 59 59 60 61 61 62 62 61 61 60
33 35 36 37 37 37 37 37 37 37 37 37 36 34 33 33 32 31 29 28 26 25 23 21 18 17 17 18 18 16 14 13 13 13 12 11 9 8 7 8 10 12 14 16 18 19 22 24 27 30 34 37 40 44 48 51 54 56 56 55 55 54 54 54 54 54 54 54 54 55 56 56 56 56 55 55 55 56 56 57 57 57 56 56 56
33 35 36 37 38 38 38 38 38 38 38 38 38 36 34 32 32 31 30 28 26 25 24 22 19 16 14 15 16 15 13 10 10 11 12 11 9 7 6 6 7 8 9 11 13 14 16 18 21 23 26 29 32 35 39 42 46 49 51 51 50 49 49 49 49 49 50 51 51 51 51 51 51 51 51 51 52 52 53 53 53 53 53 53 54
33 35 36 37 37 38 38 38 38 39 39 39 39 38 36 33 31 30 29 28 26 24 23 22 20 17 14 13 13 14 13 10 8 8 10 9 8 6 4 4 4 5 5 7 9 11 12 13 15 16 18 20 23 26 29 32 36 40 44 46 47 47 46 46 46 47 47 48 48 48 48 48 48 48 48 48 49 49 50 51 51 52 52 52 52
33 34 35 36 36 37 37 38 38 39 39 39 39 38 37 35 32 29 28 28 26 24 22 21 20 18 16 14 12 13 13 10 7 7 7 7 6 4 3 3 3 4 4 5 6 7 9 10 11 13 15 17 19 21 23 26 29 33 36 40 42 44 44 44 44 44 44 44 45 45 45 45 45 45 46 46 47 47 48 48 49 49 49 49 50
Wind_Direction
258 257 256 255 256 256 255 255 255 255 256 256 256 255 253 252 252 253 255 258 261 262 262 262 263 262 260 257 256 256 255 254 253 253 252 252 253 253 253 254 254 254 254 254 254 254 253 252 251 251 251 250 249 248 248 248 249 250 251 252 253 255 256 258 259 260 262 263 265 265 265 265 265 264 263 263 262 262 262 262 263 264 265 266 266
258 256 255 255 256 256 257 256 255 254 255 255 255 254 253 252 252 253 255 259 262 264 263 261 261 261 260 258 257 255 255 255 254 254 253 253 253 253 253 254 254 253 253 253 253 253 253 251 250 250 250 249 247 246 246 247 248 249 251 252 253 254 256 257 259 260 261 263 264 266 266 266 265 265 264 263 263 262 262 263 263 264 265 265 266
259 258 256 255 255 255 256 256 255 255 254 254 253 253 252 253 253 254 257 262 264 264 263 260 259 258 258 258 257 256 254 254 254 254 253 253 253 253 253 253 253 253 252 251 251 251 252 251 250 248 247 246 244 244 245 246 248 249 249 250 251 253 255 257 258 260 261 262 264 265 266 266 266 265 265 264 264 263 263 263 263 264 264 264 264
259 258 258 257 256 256 257 256 256 255 255 255 255 255 254 254 255 256 259 262 263 262 260 259 257 257 257 258 258 257 256 255 254 254 253 253 253 252 252 253 253 252 251 250 250 250 250 250 249 247 245 244 243 243 244 246 247 248 247 248 250 251 253 256 258 259 261 262 263 264 264 265 265 267 267 266 265 264 264 263 263 263 263 262 262
259 259 260 261 261 262 262 261 260 259 258 259 259 259 259 258 259 260 260 259 258 257 255 255 254 254 254 255 256 258 259 258 258 256 255 254 253 252 252 252 252 252 251 250 249 249 249 249 249 247 244 243 243 244 245 246 246 246 245 246 248 250 252 254 257 259 261 261 261 261 262 264 266 268 269 269 267 265 264 263 262 261 260 260 259
262 262 263 263 265 266 268 268 267 265 264 262 262 261 261 262 263 264 263 259 256 254 254 253 253 253 253 252 253 254 256 258 259 259 258 256 254 253 252 252 252 252 252 250 249 249 248 248 247 246 244 243 244 245 246 247 246 245 245 246 247 249 251 253 255 258 259 258 258 259 262 265 267 269 271 271 269 267 265 263 262 260 258 257 256
266 267 267 267 268 269 269 270 270 270 269 267 266 264 262 262 262 264 264 263 261 259 257 257 256 255 255 254 254 253 254 256 257 259 259 259 258 256 254 252 252 252 252 251 250 248 247 247 246 245 244 244 245 245 246 246 246 246 246 246 246 248 250 251 253 255 256 256 256 258 261 265 267 269 271 272 272 269 265 263 261 259 257 256 256
268 269 269 270 271 272 271 272 272 271 270 269 269 267 265 264 263 262 263 263 264 263 263 262 262 260 259 258 257 256 254 255 256 258 259 259 260 260 258 255 252 251 252 252 251 249 248 247 245 244 244 244 245 245 245 246 246 246 247 247 247 248 248 249 251 254 256 257 256 257 260 264 267 270 272 274 273 270 265 262 260 259 258 258 257
271 271 272 272 273 273 273 274 274 273 271 270 270 269 268 267 265 264 263 263 263 263 263 264 264 264 264 262 261 260 259 258 258 259 260 260 260 260 260 259 256 253 252 252 252 251 249 248 247 246 245 245 245 245 246 246 247 248 248 249 248 248 249 251 254 257 258 259 258 260 262 265 267 270 272 272 271 269 266 264 262 259 258 257 257
273 274 274 274 275 275 274 274 273 272 271 271 270 270 270 269 268 267 266 265 264 263 263 262 262 262 263 264 264 263 263 263 263 263 263 263 262 261 260 259 258 255 253 253 252 251 249 248 247 247 247 247 247 248 248 249 249 250 250 250 249 250 252 255 258 260 261 261 262 263 265 267 268 270 271 270 268 267 267 266 263 259 257 257 257
274 274 275 274 274 274 274 273 273 272 271 270 270 270 270 270 269 269 268 268 266 265 264 262 261 260 260 260 262 263 263 263 264 265 265 265 264 262 260 259 258 256 254 253 253 252 250 248 247 247 247 247 248 248 248 248 248 249 250 250 252 253 256 258 259 262 265 266 267 267 269 270 270 270 269 267 265 263 263 263 262 260 258 258 258
274 274 274 274 273 273 272 272 272 271 271 271 270 270 269 269 269 268 268 268 268 267 266 264 263 261 259 257 258 259 261 262 262 263 264 264 265 264 262 260 258 257 254 253 252 252 251 249 247 247 246 247 247 247 247 247 248 250 251 252 254 255 256 258 260 263 266 268 270 270 271 271 271 269 267 265 264 261 260 259 260 260 260 260 260
274 274 274 274 273 273 273 272 272 271 271 271 271 270 270 270 269 268 268 267 267 267 267 267 266 264 262 259 257 256 257 259 261 262 262 262 263 264 264 262 259 258 256 254 252 251 251 251 250 249 248 248 248 249 249 251 252 253 253 254 254 253 255 257 260 263 266 268 269 270 271 271 270 267 265 263 263 262 260 258 258 259 259 259 260
275 275 275 274 274 274 274 274 273 273 272 272 271 271 270 270 270 269 269 268 267 266 266 266 266 266 265 263 260 257 255 255 257 260 261 262 262 262 262 262 261 259 257 255 253 251 250 250 250 250 250 251 251 252 253 254 255 255 256 256 255 254 255 258 262 265 267 269 270 271 271 269 268 265 263 262 263 262 261 259 258 258 256 256 258
275 275 275 275 275 275 275 275 275 274 274 273 273 272 272 271 270 270 269 269 268 267 266 265 265 265 265 265 264 261 259 256 255 256 258 260 260 260 260 261 261 259 258 256 255 252 250 249 249 250 250 251 252 253 254 255 255 256 256 256 256 256 257 260 263 265 266 267 267 267 267 266 264 262 261 261 261 260 259 259 259 258 257 256 257
276 276 276 276 276 276 276 276 276 275 275 275 274 274 273 272 271 271 270 269 268 267 266 266 265 264 263 264 264 263 262 260 258 257 256 257 257 258 258 258 258 259 258 256 255 253 252 250 249 249 249 250 251 252 253 254 255 255 256 256 257 258 259 261 262 264 264 263 262 262 261 261 261 260 259 259 259 258 258 258 258 258 259 258 258
277 277 277 277 277 277 277 277 277 276 276 275 275 274 274 273 272 271 270 269 268 267 266 266 265 264 264 263 262 262 262 261 261 259 258 257 257 256 256 256 256 256 257 256 254 253 252 251 249 248 247 248 250 251 252 252 253 254 254 255 257 259 260 261 262 262 262 261 259 259 259 259 260 260 260 259 259 258 258 258 258 259 260 260 259
278 278 278 278 278 278 278 277 277 277 276 276 275 275 274 274 273 272 271 270 269 267 266 265 264 264 264 263 263 262 261 260 260 260 259 258 258 257 256 255 254 254 254 255 254 252 251 251 250 248 246 246 246 248 249 250 251 252 252 253 255 256 258 261 262 261 259 257 256 257 258 259 259 260 260 259 259 258 257 258 259 259 260 261 261
280 280 279 279 279 279 279 279 278 278 278 277 277 276 275 275 274 274 273 272 271 269 268 266 265 264 264 264 263 262 261 260 259 259 259 258 258 258 257 256 254 253 252 252 252 252 251 250 250 249 248 246 244 245 247 248 250 251 251 252 253 255 257 259 259 257 255 253 254 255 258 259 260 261 261 260 260 259 259 258 259 259 260 260 261
282 282 281 281 281 281 281 281 281 280 280 279 279 278 277 276 275 274 274 273 272 271 270 269 267 265 264 264 263 263 262 261 259 258 258 258 257 257 257 256 255 253 251 250 249 249 249 249 249 249 248 247 246 245 246 248 249 251 252 253 254 255 256 255 255 254 254 253 253 254 256 257 259 260 260 260 260 260 260 259 259 259 260 261 260
285 284 284 284 284 284 284 284 283 283 282 281 280 279 278 278 277 275 275 274 273 272 271 270 269 268 266 265 264 263 262 262 260 259 258 257 256 256 256 256 256 254 252 250 248 247 246 247 247 247 247 247 246 246 246 247 248 250 251 253 253 254 254 254 254 254 254 254 255 255 255 256 256 257 258 259 260 261 260 259 259 259 261 261 261
288 288 288 288 288 288 287 286 286 285 284 283 282 281 281 280 279 278 276 275 274 273 271 270 269 268 267 266 265 264 263 262 261 259 258 257 256 255 255 255 255 255 254 252 249 247 245 244 245 245 246 247 247 247 246 247 248 249 250 251 251 252 254 256 256 256 256 256 257 257 257 257 256 256 257 258 259 260 258 258 258 259 261 262 262
291 291 291 291 291 290 289 289 288 287 286 285 285 284 283 282 281 280 278 277 276 274 273 271 270 268 266 265 264 263 263 262 261 260 258 257 256 255 254 254 254 254 254 253 251 249 246 244 243 243 244 245 247 247 247 247 247 247 248 248 250 252 254 256 257 257 258 258 258 258 258 258 257 257 256 256 257 257 257 257 259 260 261 263 264
293 294 293 293 292 292 291 290 289 289 288 287 286 285 285 284 283 282 281 280 278 277 275 273 271 269 267 265 263 262 261 261 260 259 257 256 255 255 254 254 253 253 253 253 252 250 248 245 244 243 243 244 245 246 247 247 246 246 246 246 247 249 251 254 256 257 258 258 258 257 256 256 256 256 255 255 256 256 257 258 260 261 262 263 264
295 295 295 294 294 293 292 291 291 290 290 289 288 288 287 287 286 285 284 282 280 278 277 274 272 270 268 266 264 262 261 260 259 257 256 255 254 254 254 253 253 252 252 251 251 251 249 246 244 243 243 244 244 245 246 247 247 246 245 245 246 248 251 254 255 256 257 258 257 255 253 253 254 254 254 254 255 255 255 258 260 260 261 262 262
296 296 296 295 295 294 293 293 292 292 291 291 290 290 290 289 288 287 285 283 282 280 279 277 274 272 270 267 265 263 261 260 259 257 256 254 253 252 252 252 252 252 251 250 249 249 249 248 245 243 242 243 244 245 245 246 247 247 247 246 246 248 251 253 255 256 257 256 254 253 252 251 251 251 251 252 254 254 255 257 259 259 259 260 261
298 297 297 296 295 295 295 294 294 293 292 291 291 291 291 290 288 286 285 284 282 281 280 278 277 275 272 269 266 264 261 260 258 257 256 254 252 250 249 249 250 250 250 250 249 248 248 248 246 243 241 241 243 244 245 245 246 247 248 248 247 247 249 251 253 254 254 253 251 251 250 250 249 250 251 253 254 255 256 257 258 258 258 259 261
299 299 298 297 297 297 296 296 295 294 294 293 293 293 292 292 291 289 287 285 283 281 280 279 278 277 275 272 269 266 263 261 259 257 256 254 253 250 248 247 248 249 249 248 248 246 245 245 245 244 242 240 241 243 244 245 245 246 247 248 248 247 247 249 250 251 251 251 250 250 249 249 249 249 251 254 255 256 257 257 256 256 257 259 261
301 301 300 300 299 299 299 298 298 297 296 295 294 294 294 294 294 293 291 288 286 283 281 280 279 278 277 275 272 269 266 263 261 258 256 254 253 251 249 247 246 247 247 247 246 245 243 243 243 243 242 240 240 241 243 244 244 244 245 246 247 247 246 246 248 250 250 250 250 249 248 248 249 250 252 255 256 256 257 257 255 254 256 259 261
304 303 303 302 302 302 301 300 299 299 297 296 296 296 296 296 296 294 292 289 287 285 282 280 279 278 277 276 275 272 269 265 262 260 258 256 254 252 250 247 245 245 245 245 244 243 242 241 241 241 241 240 239 239 240 241 242 242 243 244 245 245 245 244 245 247 248 249 250 250 249 248 249 251 252 254 256 256 256 255 254 254 257 260 262
305 305 305 305 305 304 303 303 303 302 301 300 299 298 298 297 296 295 293 290 287 285 283 281 279 278 277 276 275 275 273 269 265 263 260 258 255 253 251 248 245 244 243 243 242 242 241 240 240 239 239 239 237 237 238 239 240 240 241 242 242 243 243 242 243 245 247 248 250 251 251 250 250 252 251 251 252 253 254 254 254 255 258 260 261
307 307 308 308 307 307 307 308 307 306 304 303 303 302 301 299 298 297 296 294 291 288 285 282 279 278 276 275 275 275 274 271 268 266 263 260 257 255 252 249 245 242 241 241 240 240 240 239 238 237 236 237 236 234 235 237 238 238 238 239 240 241 242 241 242 244 246 247 248 249 250 250 251 251 249 247 249 251 253 254 255 256 257 258 258
310 310 310 310 310 311 312 312 311 309 308 307 306 305 304 302 301 299 297 296 294 292 289 285 282 279 277 275 275 274 272 270 268 267 265 263 260 257 254 250 246 242 240 239 239 239 238 238 237 235 233 234 233 232 232 234 236 235 235 237 238 239 240 240 241 242 244 245 246 246 247 248 248 247 245 245 248 250 251 251 253 254 255 255 255
315 314 313 312 312 314 315 315 314 313 312 311 310 309 308 306 304 301 297 294 292 291 290 287 284 281 279 278 277 275 272 269 267 265 264 263 261 259 256 252 247 243 240 238 237 237 237 236 234 233 231 230 231 231 231 232 234 234 234 234 236 237 239 239 240 241 242 243 244 245 245 246 245 244 243 244 246 246 247 249 251 253 253 252 253
322 319 315 313 314 317 318 317 316 314 313 313 314 315 314 312 310 307 303 298 293 289 288 287 286 283 281 279 278 275 272 269 266 264 262 262 261 259 257 254 249 245 242 239 236 235 235 233 231 231 229 228 228 229 230 231 234 234 234 234 234 235 236 238 238 239 240 242 243 244 244 244 243 242 242 243 244 246 247 249 251 252 252 252 252
329 326 321 316 316 318 319 318 317 315 315 317 320 321 320 318 318 317 314 308 302 296 291 289 288 286 283 281 278 276 272 270 267 265 263 261 260 259 257 256 252 248 244 240 237 234 232 230 228 228 228 227 226 227 229 231 233 235 235 235 235 234 234 235 236 237 238 239 240 241 241 242 242 242 243 244 246 247 248 249 250 251 251 251 252
336 333 327 320 317 318 319 319 317 316 317 320 323 326 326 326 327 328 326 321 314 307 300 294 290 289 287 285 282 278 275 271 269 267 265 262 260 259 258 257 254 249 244 240 236 233 231 228 226 226 227 226 225 226 228 231 233 235 236 237 237 236 235 235 234 235 236 237 237 238 238 240 242 243 245 246 247 248 248 248 249 250 251 251 251
341 340 334 326 319 317 319 319 318 318 320 323 325 327 330 330 330 333 336 334 326 318 311 303 296 291 290 288 286 283 279 275 272 270 267 265 262 260 258 256 253 249 243 238 235 232 229 225 224 224 226 225 224 225 227 230 232 234 236 238 239 239 239 237 235 235 236 238 240 241 241 243 244 245 245 245 245 245 245 246 248 250 251 252 252
346 345 341 334 326 320 319 320 319 319 322 326 327 328 330 331 332 335 340 342 339 331 322 314 306 298 291 288 286 285 282 279 276 273 270 267 264 262 259 255 252 248 241 236 232 230 227 223 222 222 224 225 224 224 226 229 231 232 234 236 238 240 241 240 238 237 238 241 244 245 246 247 246 244 244 245 246 246 247 248 249 251 252 253 254
348 349 347 342 336 327 320 319 319 320 323 327 329 329 330 332 334 336 338 343 346 345 339 330 320 310 300 292 288 285 283 282 280 276 272 269 264 260 257 254 251 246 240 234 231 229 225 222 220 221 223 224 224 224 225 228 230 231 232 234 237 239 241 241 241 241 242 244 247 248 249 248 245 243 245 249 250 250 251 251 252 253 254 255 257
348 350 350 348 345 338 330 323 320 320 323 325 328 329 331 332 335 337 338 340 345 350 353 349 341 330 318 306 297 291 286 284 282 279 274 269 264 259 256 254 250 245 237 232 229 228 224 221 219 220 222 223 223 224 226 228 229 230 231 233 236 238 240 242 243 244 245 246 248 249 250 248 245 246 249 253 253 253 254 254 255 256 257 257 258
349 350 350 349 349 348 345 339 331 326 323 323 325 328 330 332 333 335 338 340 343 348 353 357 356 351 342 329 316 305 296 289 284 280 276 271 266 262 258 254 249 242 235 230 228 227 224 221 219 220 222 223 223 225 226 228 228 228 229 231 234 237 240 242 244 246 247 248 249 251 251 251 250 251 253 255 255 256 256 257 258 258 258 259 260
349 350 351 351 350 351 353 352 347 340 333 326 323 324 328 331 332 333 335 339 343 346 349 354 357 359 358 351 339 324 311 301 292 284 278 274 270 266 260 255 248 239 232 229 228 227 225 222 220 220 221 222 223 225 227 228 228 228 229 230 232 235 238 240 242 245 247 248 249 251 252 254 254 255 255 256 256 257 257 258 259 259 259 259 260
347 349 350 351 352 353 354 355 355 353 347 339 331 326 326 329 332 334 333 335 339 345 348 350 352 355 357 359 355 346 329 314 303 294 285 277 271 265 259 253 246 238 233 230 229 228 226 223 221 221 222 223 224 225 227 228 228 228 229 230 231 233 236 238 240 243 244 246 247 248 249 251 252 253 254 254 255 255 256 256 256 256 257 258 259
344 346 347 349 351 353 354 355 356 356 356 353 347 339 333 330 332 334 335 333 334 339 345 350 352 352 352 353 357 358 351 336 318 305 295 284 274 265 256 248 242 237 234 232 232 231 229 226 224 223 223 224 225 226 227 228 228 228 229 231 232 233 235 237 238 240 241 242 243 244 245 246 247 249 250 250 251 252 253 253 254 255 256 257 259
342 343 344 346 348 350 353 355 356 357 357 357 356 353 347 341 336 336 336 335 333 334 339 346 351 352 349 347 349 354 358 358 349 332 314 298 283 271 261 251 244 239 236 235 235 234 232 229 227 225 225 225 226 226 227 228 228 228 229 231 232 234 235 236 237 238 238 239 240 241 242 243 244 245 246 248 249 250 250 251 252 254 256 257 259
338 339 341 344 346 348 350 352 355 356 357 357 357 357 355 351 345 340 338 337 335 333 334 338 344 348 348 347 346 347 351 356 359 357 349 335 312 289 273 262 252 245 241 239 238 236 234 232 230 228 227 227 227 228 228 228 228 229 229 231 233 234 236 237 237 238 238 239 240 240 241 242 244 245 246 248 249 250 251 252 254 255 257 259 260
335 336 339 341 344 347 349 351 353 354 356 357 357 357 356 355 352 348 342 339 337 336 333 332 334 339 343 344 344 345 347 349 350 349 350 352 347 330 305 284 267 254 245 240 238 236 235 234 232 230 229 229 229 230 230 230 229 230 231 233 235 236 238 239 240 240 241 243 244 244 244 245 246 247 249 250 252 253 255 256 257 258 259 260 261
331 333 336 338 341 344 347 349 351 353 354 355 356 356 355 354 353 352 348 343 339 337 335 332 330 330 334 339 342 344 347 355 356 344 332 328 331 334 329 315 295 275 256 242 233 230 229 231 231 231 231 231 231 232 233 232 232 232 233 235 237 239 240 241 242 242 243 245 246 247 247 248 249 250 251 252 254 255 257 258 259 260 260 261 262
330 331 333 336 339 342 345 347 349 351 353 353 354 354 354 353 352 351 350 348 343 338 335 334 331 327 324 328 336 338 337 343 358 356 339 323 311 306 310 317 311 295 273 251 237 229 227 228 230 230 231 232 233 233 233 233 233 234 235 237 239 240 241 242 243 243 244 245 247 248 249 250 251 252 253 254 255 256 257 258 259 260 261 263 264
330 331 333 335 338 341 344 346 348 349 351 352 352 351 352 352 350 348 348 349 348 344 337 333 332 330 326 322 325 330 331 331 338 348 347 341 328 310 292 287 285 279 266 255 243 233 228 226 226 226 227 227 227 228 229 230 231 232 234 236 238 240 241 243 244 244 245 246 247 248 249 250 251 251 252 253 255 256 257 259 260 261 262 263 264
Height
5616 5616 5615 5615 5615 5614 5614 5614 5613 5613 5613 5613 5613 5613 5612 5612 5612 5612 5612 5612 5612 5612 5612 5611 5611 5611 5611 5611 5611 5611 5611 5611 5611 5612 5612 5613 5614 5615 5615 5615 5617 5619 5620 5622 5624 5625 5627 5628 5629 5630 5629 5630 5632 5632 5632 5632 5632 5633 5633 5634 5635 5636 5636 5638 5638 5641 5644 5643 5645 5647 5648 5650 5652 5652 5653 5654 5654 5656 5658 5659 5660 5662 5663 5663 5664
5606 5606 5605 5605 5604 5604 5603 5603 5603 5603 5603 5603 5603 5603 5602 5602 5602 5602 5602 5603 5603 5603 5603 5602 5602 5602 5601 5601 5601 5601 5601 5601 5602 5602 5603 5604 5604 5604 5605 5605 5607 5609 5610 5612 5614 5615 5617 5619 5621 5621 5620 5620 5622 5622 5622 5623 5623 5625 5626 5626 5627 5628 5628 5628 5629 5633 5636 5636 5636 5639 5640 5642 5643 5644 5645 5645 5645 5647 5649 5650 5652 5653 5654 5655 5656
5595 5595 5594 5594 5593 5593 5593 5592 5592 5592 5592 5591 5591 5592 5592 5591 5591 5592 5593 5593 5594 5593 5593 5592 5591 5591 5591 5591 5591 5591 5591 5591 5592 5592 5593 5593 5594 5594 5594 5595 5597 5598 5600 5602 5604 5604 5606 5609 5611 5611 5609 5610 5612 5613 5613 5614 5614 5616 5617 5617 5618 5619 5619 5619 5620 5624 5627 5628 5629 5630 5631 5633 5634 5635 5636 5637 5637 5638 5640 5641 5643 5644 5645 5646 5647
5583 5582 5582 5581 5581 5581 5581 5581 5580 5580 5580 5580 5579 5579 5580 5580 5580 5581 5582 5582 5582 5582 5582 5581 5581 5580 5581 5580 5580 5580 5580 5581 5581 5582 5582 5583 5583 5583 5584 5585 5587 5588 5590 5592 5593 5593 5595 5599 5602 5601 5599 5601 5603 5603 5604 5605 5606 5607 5608 5608 5609 5610 5611 5611 5611 5615 5619 5621 5621 5622 5623 5624 5626 5627 5627 5628 5629 5629 5631 5633 5634 5635 5636 5637 5638
5571 5570 5569 5568 5568 5569 5569 5569 5569 5569 5568 5568 5567 5567 5567 5568 5568 5569 5570 5570 5570 5570 5569 5569 5569 5570 5570 5570 5570 5570 5569 5570 5570 5571 5571 5572 5572 5573 5573 5575 5576 5578 5580 5582 5583 5583 5585 5589 5592 5590 5590 5592 5595 5595 5595 5596 5597 5598 5598 5599 5600 5601 5602 5603 5603 5606 5611 5614 5613 5614 5615 5615 5617 5619 5619 5619 5620 5621 5622 5624 5625 5627 5628 5629 5629
5559 5558 5558 5557 5557 5557 5558 5558 5558 5558 5557 5556 5556 5556 5555 5556 5556 5556 5557 5557 5557 5557 5557 5556 5556 5557 5557 5558 5559 5559 5559 5559 5559 5560 5560 5560 5561 5561 5563 5564 5566 5567 5570 5572 5572 5572 5575 5579 5581 5579 5581 5585 5587 5587 5587 5587 5587 5588 5589 5590 5591 5591 5593 5594 5594 5596 5602 5605 5606 5606 5607 5607 5609 5610 5610 5611 5612 5613 5614 5615 5616 5618 5619 5620 5620
5547 5546 5545 5545 5545 5545 5545 5545 5546 5546 5545 5545 5544 5544 5544 5544 5544 5544 5543 5543 5543 5543 5544 5544 5544 5544 5545 5545 5546 5547 5548 5548 5548 5548 5549 5549 5549 5550 5551 5553 5555 5557 5559 5561 5561 5562 5565 5569 5570 5569 5572 5576 5578 5577 5577 5577 5578 5579 5580 5581 5581 5582 5583 5585 5585 5587 5591 5596 5598 5599 5599 5599 5600 5602 5602 5602 5604 5605 5605 5606 5607 5609 5610 5611 5612
5534 5533 5532 5532 5532 5532 5532 5532 5532 5532 5532 5531 5530 5530 5530 5531 5531 5531 5531 5530 5530 5529 5529 5530 5531 5531 5532 5533 5533 5534 5535 5535 5536 5536 5537 5538 5538 5539 5540 5542 5544 5546 5549 5551 5551 5553 5556 5558 5559 5560 5562 5566 5567 5567 5566 5567 5568 5570 5571 5572 5571 5572 5574 5575 5576 5578 5581 5586 5589 5590 5591 5591 5592 5594 5594 5594 5595 5596 5595 5596 5598 5600 5602 5603 5604
5521 5520 5519 5518 5518 5518 5518 5518 5517 5517 5516 5515 5515 5514 5514 5515 5515 5516 5516 5516 5517 5517 5517 5516 5516 5517 5518 5519 5520 5521 5521 5521 5522 5522 5524 5525 5526 5528 5529 5531 5533 5536 5538 5540 5542 5543 5546 5548 5549 5551 5553 5555 5556 5556 5557 5557 5558 5561 5563 5562 5561 5563 5565 5566 5568 5570 5572 5575 5579 5581 5582 5582 5584 5586 5587 5586 5586 5586 5586 5587 5589 5591 5592 5595 5596
5507 5506 5505 5503 5503 5502 5502 5502 5503 5503 5502 5501 5499 5499 5498 5499 5499 5499 5500 5500 5501 5502 5503 5503 5504 5504 5504 5505 5506 5507 5508 5508 5507 5508 5509 5511 5513 5515 5517 5519 5522 5525 5527 5530 5532 5534 5535 5537 5539 5541 5542 5544 5545 5547 5548 5548 5549 5552 5554 5552 5552 5555 5557 5558 5560 5561 5562 5565 5568 5570 5572 5574 5576 5578 5579 5579 5577 5577 5577 5578 5579 5581 5583 5586 5587
5494 5493 5491 5490 5489 5489 5488 5488 5488 5488 5487 5486 5485 5484 5484 5483 5483 5483 5484 5484 5484 5485 5486 5488 5489 5490 5491 5491 5492 5493 5495 5495 5495 5495 5495 5495 5498 5501 5504 5507 5510 5513 5516 5519 5521 5524 5525 5526 5528 5530 5531 5533 5535 5536 5537 5538 5539 5542 5543 5542 5544 5547 5547 5549 5551 5552 5552 5554 5557 5560 5562 5565 5567 5568 5570 5570 5569 5569 5569 5569 5569 5571 5574 5576 5578
5481 5479 5478 5477 5476 5476 5475 5474 5474 5473 5472 5471 5470 5469 5469 5468 5468 5468 5468 5469 5468 5469 5470 5470 5472 5474 5476 5477 5479 5479 5481 5482 5482 5483 5483 5483 5483 5485 5489 5494 5497 5500 5504 5507 5510 5513 5514 5516 5517 5519 5520 5523 5524 5524 5526 5528 5530 5532 5533 5533 5535 5536 5537 5539 5541 5542 5543 5544 5546 5549 5554 5556 5556 5558 5560 5560 5560 5560 5561 5561 5561 5562 5565 5566 5568
5469 5466 5465 5463 5461 5461 5459 5459 5459 5458 5457 5456 5454 5454 5453 5452 5452 5452 5452 5453 5453 5454 5455 5454 5455 5457 5458 5461 5464 5465 5467 5468 5468 5468 5470 5470 5470 5470 5473 5478 5483 5487 5491 5494 5497 5500 5503 5505 5506 5508 5510 5512 5513 5514 5516 5519 5520 5521 5522 5522 5524 5527 5528 5530 5531 5532 5533 5534 5536 5540 5544 5545 5545 5548 5550 5549 5549 5550 5552 5553 5553 5553 5555 5556 5558
5456 5453 5451 5449 5447 5445 5443 5442 5442 5442 5441 5440 5438 5438 5437 5436 5436 5435 5434 5434 5436 5437 5439 5440 5440 5440 5441 5443 5446 5449 5452 5454 5453 5453 5454 5455 5456 5457 5459 5462 5467 5472 5476 5480 5483 5487 5490 5492 5494 5497 5500 5501 5502 5504 5506 5508 5509 5509 5509 5511 5514 5517 5518 5519 5520 5522 5523 5525 5527 5530 5533 5533 5534 5538 5539 5539 5540 5541 5543 5544 5544 5544 5545 5546 5548
5442 5439 5437 5435 5432 5430 5428 5426 5425 5424 5423 5422 5421 5421 5420 5419 5419 5418 5417 5416 5417 5417 5419 5421 5423 5424 5425 5425 5426 5431 5437 5439 5439 5438 5439 5439 5440 5441 5444 5448 5451 5455 5460 5465 5469 5473 5476 5478 5481 5485 5488 5489 5491 5492 5494 5496 5496 5496 5497 5500 5504 5506 5507 5509 5511 5512 5513 5516 5518 5520 5521 5522 5523 5526 5527 5528 5530 5531 5532 5533 5534 5534 5535 5537 5540
5428 5425 5423 5421 5418 5415 5412 5410 5408 5407 5405 5404 5403 5402 5401 5401 5401 5400 5399 5399 5399 5398 5398 5400 5402 5404 5408 5408 5408 5411 5418 5422 5422 5423 5423 5424 5424 5425 5428 5432 5435 5438 5444 5449 5453 5457 5461 5464 5468 5472 5475 5478 5480 5480 5481 5483 5482 5482 5485 5490 5493 5494 5496 5500 5502 5502 5503 5506 5507 5508 5509 5511 5512 5514 5515 5517 5519 5520 5521 5522 5524 5525 5526 5528 5530
5415 5412 5409 5407 5403 5400 5398 5395 5392 5390 5389 5387 5386 5385 5383 5382 5383 5381 5379 5379 5380 5380 5379 5380 5381 5383 5386 5389 5390 5392 5398 5403 5404 5404 5406 5406 5407 5409 5411 5414 5418 5423 5428 5433 5436 5440 5445 5450 5453 5457 5460 5465 5469 5469 5468 5469 5468 5469 5474 5478 5479 5481 5485 5490 5491 5491 5493 5494 5495 5496 5497 5499 5500 5502 5504 5506 5509 5511 5512 5512 5514 5516 5516 5517 5521
5402 5399 5396 5393 5390 5387 5384 5380 5378 5375 5373 5372 5370 5368 5367 5365 5364 5363 5360 5359 5361 5361 5360 5361 5363 5364 5364 5367 5370 5371 5376 5383 5385 5385 5387 5388 5388 5389 5392 5396 5401 5407 5413 5417 5419 5423 5429 5434 5437 5441 5446 5451 5455 5454 5455 5455 5455 5457 5463 5466 5466 5469 5476 5480 5479 5479 5481 5482 5483 5484 5485 5487 5489 5491 5493 5495 5498 5501 5503 5503 5504 5505 5505 5507 5510
5389 5386 5383 5380 5377 5374 5370 5367 5364 5361 5359 5357 5355 5353 5351 5349 5348 5346 5343 5341 5341 5342 5341 5342 5345 5347 5347 5348 5349 5350 5354 5362 5367 5367 5368 5370 5369 5369 5371 5375 5382 5390 5396 5400 5403 5407 5413 5418 5421 5425 5430 5435 5438 5439 5440 5442 5441 5444 5449 5451 5452 5460 5468 5468 5466 5466 5468 5470 5471 5472 5473 5475 5478 5480 5483 5485 5487 5491 5493 5494 5494 5494 5495 5496 5498
5377 5373 5370 5368 5365 5362 5358 5354 5351 5348 5344 5342 5339 5337 5335 5333 5331 5330 5326 5324 5323 5323 5324 5324 5325 5328 5331 5331 5331 5332 5334 5340 5347 5350 5351 5351 5352 5351 5351 5354 5362 5371 5377 5382 5386 5391 5397 5402 5406 5411 5414 5417 5420 5423 5425 5426 5428 5431 5433 5436 5442 5452 5455 5452 5451 5454 5456 5458 5460 5461 5462 5465 5467 5470 5472 5475 5477 5480 5482 5483 5483 5483 5484 5485 5487
5363 5360 5357 5355 5352 5349 5345 5341 5337 5333 5329 5326 5322 5321 5319 5316 5314 5313 5310 5308 5307 5307 5307 5307 5306 5309 5313 5314 5314 5315 5317 5320 5326 5331 5333 5334 5334 5334 5333 5335 5342 5350 5356 5362 5368 5375 5382 5387 5391 5396 5398 5399 5403 5407 5410 5412 5415 5416 5418 5425 5434 5438 5436 5435 5439 5443 5443 5446 5449 5450 5452 5455 5457 5460 5463 5465 5467 5470 5471 5471 5472 5473 5473 5474 5477
5349 5347 5344 5341 5338 5335 5331 5326 5322 5318 5314 5309 5305 5303 5303 5299 5296 5294 5292 5290 5289 5289 5290 5290 5288 5289 5294 5297 5297 5299 5301 5302 5305 5311 5315 5317 5317 5317 5316 5317 5323 5329 5333 5341 5350 5359 5366 5372 5376 5380 5383 5384 5387 5391 5394 5398 5400 5402 5407 5415 5420 5421 5420 5423 5427 5429 5431 5435 5438 5440 5442 5445 5447 5450 5452 5455 5458 5460 5460 5461 5461 5462 5462 5463 5466
5336 5333 5330 5326 5323 5319 5315 5311 5306 5301 5297 5293 5288 5286 5285 5282 5278 5276 5274 5271 5270 5271 5271 5271 5269 5270 5274 5278 5280 5282 5284 5285 5287 5291 5296 5299 5300 5300 5299 5301 5305 5309 5312 5320 5332 5341 5349 5355 5360 5364 5368 5370 5372 5375 5378 5382 5385 5390 5397 5401 5403 5407 5410 5411 5413 5417 5421 5424 5427 5430 5433 5434 5437 5439 5441 5444 5447 5450 5450 5450 5449 5450 5451 5453 5456
5324 5320 5316 5312 5307 5303 5299 5295 5291 5286 5282 5278 5273 5271 5269 5265 5261 5259 5256 5253 5251 5251 5252 5252 5250 5250 5254 5257 5261 5264 5266 5266 5268 5272 5277 5281 5283 5284 5284 5285 5289 5292 5294 5301 5312 5321 5329 5338 5343 5347 5351 5356 5358 5359 5362 5367 5372 5378 5384 5386 5390 5396 5399 5399 5403 5408 5411 5414 5417 5420 5422 5424 5425 5427 5430 5433 5436 5438 5438 5438 5437 5439 5441 5443 5445
5312 5307 5302 5298 5293 5288 5284 5281 5277 5272 5268 5264 5260 5257 5254 5250 5247 5244 5240 5237 5235 5233 5234 5234 5232 5232 5234 5237 5241 5245 5247 5248 5249 5254 5259 5263 5266 5268 5269 5270 5272 5275 5277 5283 5293 5301 5309 5318 5325 5330 5336 5341 5343 5344 5347 5353 5360 5365 5369 5373 5378 5384 5387 5390 5394 5397 5400 5405 5408 5408 5410 5412 5413 5416 5419 5421 5423 5424 5426 5426 5427 5428 5431 5433 5435
5300 5295 5290 5285 5280 5275 5271 5267 5264 5260 5257 5252 5247 5244 5241 5237 5235 5231 5226 5223 5221 5220 5218 5218 5217 5216 5216 5219 5222 5226 5228 5229 5232 5236 5241 5245 5248 5251 5253 5253 5255 5257 5260 5266 5275 5283 5290 5298 5307 5314 5320 5324 5327 5328 5333 5340 5346 5350 5354 5359 5365 5373 5377 5379 5382 5386 5390 5395 5396 5396 5398 5400 5401 5404 5407 5408 5409 5412 5415 5416 5417 5419 5421 5422 5423
5287 5284 5278 5273 5268 5263 5259 5256 5253 5249 5246 5242 5237 5234 5230 5226 5223 5220 5216 5212 5210 5208 5206 5204 5203 5202 5201 5202 5205 5208 5211 5213 5215 5219 5223 5225 5229 5232 5235 5237 5239 5241 5244 5251 5259 5267 5274 5279 5286 5295 5303 5307 5311 5313 5318 5326 5332 5337 5342 5347 5353 5361 5367 5369 5371 5375 5379 5381 5382 5384 5386 5387 5389 5392 5395 5396 5398 5401 5404 5406 5407 5409 5410 5411 5411
5276 5272 5268 5263 5258 5253 5249 5246 5243 5240 5236 5232 5228 5224 5220 5216 5213 5210 5205 5201 5198 5197 5194 5193 5192 5190 5189 5190 5191 5193 5195 5198 5200 5202 5204 5206 5210 5213 5218 5222 5224 5225 5229 5237 5244 5250 5255 5260 5266 5275 5285 5292 5297 5301 5306 5313 5320 5326 5331 5335 5340 5348 5355 5358 5360 5363 5366 5367 5369 5372 5374 5376 5378 5381 5383 5384 5387 5390 5393 5395 5396 5397 5399 5399 5400
5267 5262 5258 5253 5249 5244 5240 5236 5233 5229 5226 5223 5219 5214 5210 5206 5203 5200 5196 5191 5187 5185 5184 5183 5181 5178 5178 5179 5180 5180 5183 5186 5186 5185 5187 5190 5193 5196 5201 5207 5210 5211 5214 5222 5228 5232 5237 5243 5250 5260 5270 5279 5285 5290 5294 5301 5307 5312 5318 5322 5327 5333 5341 5346 5349 5351 5353 5354 5357 5360 5364 5366 5368 5370 5372 5373 5376 5379 5381 5383 5384 5385 5387 5388 5390
5259 5254 5249 5244 5240 5235 5231 5228 5224 5220 5217 5214 5210 5207 5203 5198 5193 5189 5186 5181 5177 5175 5173 5172 5171 5168 5168 5170 5170 5170 5173 5174 5173 5172 5173 5176 5178 5181 5186 5192 5196 5198 5201 5206 5210 5214 5221 5230 5238 5248 5257 5265 5273 5278 5282 5288 5293 5299 5304 5308 5313 5319 5327 5335 5338 5339 5339 5341 5345 5349 5352 5354 5356 5359 5360 5362 5365 5368 5369 5370 5372 5374 5376 5378 5379
5250 5246 5240 5235 5231 5227 5223 5220 5216 5212 5208 5205 5201 5198 5195 5191 5185 5180 5175 5171 5168 5165 5163 5162 5161 5159 5159 5161 5161 5161 5163 5164 5163 5162 5163 5164 5166 5169 5173 5178 5182 5185 5187 5189 5192 5199 5209 5219 5228 5237 5245 5253 5260 5266 5270 5274 5280 5285 5290 5295 5299 5306 5314 5321 5326 5327 5327 5330 5334 5338 5341 5343 5346 5347 5349 5351 5354 5356 5358 5359 5362 5364 5365 5367 5367
5243 5238 5232 5228 5224 5220 5217 5213 5209 5205 5201 5197 5193 5189 5186 5182 5178 5173 5167 5163 5159 5156 5154 5152 5151 5150 5150 5151 5152 5153 5153 5154 5153 5153 5153 5154 5156 5158 5161 5164 5169 5172 5173 5173 5177 5186 5197 5208 5219 5228 5235 5241 5249 5255 5257 5261 5267 5272 5277 5281 5287 5294 5301 5308 5313 5315 5315 5318 5322 5326 5329 5332 5334 5335 5337 5339 5342 5345 5347 5349 5351 5352 5354 5355 5356
5236 5231 5226 5222 5218 5215 5211 5207 5202 5198 5193 5190 5186 5181 5177 5173 5170 5166 5161 5156 5152 5148 5145 5142 5141 5141 5141 5141 5143 5144 5144 5144 5144 5144 5144 5145 5146 5148 5150 5153 5156 5158 5158 5158 5164 5176 5188 5199 5210 5219 5224 5230 5237 5241 5245 5249 5254 5259 5264 5269 5275 5282 5288 5294 5299 5302 5304 5306 5310 5313 5316 5319 5321 5323 5325 5327 5330 5333 5336 5338 5340 5341 5343 5344 5345
5231 5225 5220 5216 5213 5209 5205 5201 5196 5192 5188 5183 5179 5175 5169 5164 5160 5156 5152 5149 5145 5141 5137 5134 5132 5133 5133 5133 5134 5134 5134 5134 5134 5135 5135 5136 5137 5138 5139 5141 5144 5146 5146 5147 5155 5167 5178 5188 5199 5207 5212 5218 5224 5229 5233 5238 5243 5247 5253 5258 5264 5270 5276 5282 5286 5290 5292 5294 5296 5299 5303 5307 5309 5311 5314 5317 5319 5322 5324 5327 5330 5331 5332 5333 5334
5225 5219 5215 5211 5208 5204 5200 5196 5192 5187 5183 5178 5173 5168 5162 5157 5151 5147 5142 5139 5137 5134 5130 5127 5124 5124 5125 5125 5125 5125 5125 5125 5125 5126 5127 5128 5129 5129 5129 5131 5134 5136 5137 5140 5149 5158 5167 5177 5188 5195 5200 5206 5212 5218 5222 5227 5232 5237 5243 5248 5254 5260 5265 5270 5274 5277 5279 5280 5283 5287 5292 5295 5298 5300 5303 5306 5308 5311 5314 5317 5319 5320 5321 5323 5324
5221 5214 5210 5206 5203 5200 5196 5191 5187 5183 5178 5174 5169 5163 5157 5151 5146 5141 5136 5131 5128 5125 5123 5120 5118 5116 5116 5117 5117 5117 5116 5116 5117 5118 5119 5120 5120 5120 5120 5123 5127 5129 5131 5135 5142 5148 5157 5167 5177 5183 5188 5194 5201 5206 5211 5217 5223 5229 5234 5238 5243 5249 5253 5257 5261 5264 5265 5267 5271 5276 5280 5284 5287 5290 5293 5295 5298 5302 5304 5307 5308 5309 5311 5312 5314
5217 5211 5206 5202 5199 5195 5192 5187 5183 5179 5175 5170 5165 5159 5153 5147 5142 5137 5131 5126 5122 5118 5115 5114 5112 5110 5109 5109 5109 5110 5109 5109 5110 5110 5111 5112 5112 5112 5114 5117 5119 5121 5124 5129 5133 5139 5147 5157 5166 5172 5177 5183 5189 5195 5201 5207 5214 5219 5223 5227 5232 5237 5241 5244 5247 5250 5253 5257 5261 5266 5270 5274 5277 5280 5283 5286 5289 5291 5294 5296 5297 5299 5301 5303 5304
5214 5208 5203 5198 5195 5192 5188 5184 5180 5176 5171 5167 5162 5156 5151 5145 5140 5135 5129 5123 5118 5114 5110 5108 5106 5105 5104 5103 5103 5103 5103 5103 5104 5104 5104 5105 5106 5106 5108 5110 5111 5113 5118 5122 5125 5130 5138 5147 5155 5161 5166 5172 5179 5185 5191 5197 5203 5208 5212 5217 5222 5225 5228 5231 5235 5240 5244 5249 5253 5257 5260 5264 5267 5270 5273 5275 5278 5280 5282 5285 5287 5289 5291 5293 5294
5213 5206 5201 5196 5191 5188 5184 5181 5177 5173 5169 5164 5159 5154 5149 5143 5138 5133 5128 5123 5117 5112 5107 5104 5102 5100 5099 5098 5098 5098 5098 5098 5098 5098 5098 5099 5100 5100 5102 5102 5104 5107 5111 5114 5117 5121 5129 5138 5146 5151 5156 5162 5169 5175 5181 5186 5191 5196 5201 5206 5210 5213 5217 5222 5227 5231 5235 5240 5244 5247 5251 5254 5258 5260 5262 5264 5267 5269 5272 5274 5277 5279 5281 5282 5283
5211 5205 5199 5194 5189 5184 5181 5177 5173 5169 5165 5161 5157 5152 5147 5142 5137 5132 5127 5122 5117 5111 5106 5102 5099 5097 5095 5094 5093 5093 5093 5093 5093 5093 5093 5093 5094 5094 5095 5096 5098 5101 5105 5107 5110 5114 5121 5130 5137 5142 5148 5154 5160 5166 5171 5175 5180 5185 5191 5196 5199 5203 5208 5214 5219 5223 5226 5230 5234 5238 5242 5245 5248 5250 5252 5255 5257 5260 5263 5265 5267 5269 5271 5272 5274
5209 5203 5198 5193 5188 5182 5178 5173 5169 5166 5162 5158 5154 5150 5145 5141 5136 5131 5126 5122 5117 5112 5106 5101 5098 5095 5092 5091 5090 5089 5088 5088 5088 5088 5088 5088 5089 5089 5090 5091 5093 5096 5099 5101 5104 5109 5115 5123 5129 5134 5140 5146 5152 5157 5162 5165 5169 5175 5180 5185 5190 5195 5201 5206 5211 5215 5219 5223 5227 5230 5234 5236 5238 5240 5243 5245 5248 5251 5253 5256 5258 5260 5262 5263 5265
5207 5202 5197 5193 5188 5182 5176 5171 5166 5162 5159 5155 5152 5148 5144 5139 5135 5130 5125 5121 5117 5112 5107 5103 5098 5094 5091 5089 5088 5086 5085 5085 5084 5084 5084 5085 5085 5085 5086 5087 5090 5092 5095 5097 5100 5104 5110 5117 5122 5126 5131 5137 5143 5148 5151 5154 5159 5165 5171 5177 5183 5188 5194 5200 5204 5207 5211 5215 5219 5222 5225 5227 5229 5232 5234 5237 5240 5242 5245 5247 5249 5251 5253 5254 5256
5206 5201 5197 5192 5187 5181 5176 5170 5165 5160 5156 5153 5149 5146 5142 5138 5133 5129 5125 5121 5117 5113 5108 5104 5100 5096 5092 5089 5087 5085 5084 5083 5082 5082 5082 5082 5082 5082 5083 5085 5087 5089 5091 5094 5097 5100 5105 5110 5115 5119 5123 5129 5134 5139 5142 5145 5151 5158 5165 5171 5177 5182 5187 5193 5197 5200 5204 5208 5211 5214 5217 5219 5222 5224 5227 5229 5231 5233 5236 5238 5240 5242 5244 5245 5246
5204 5200 5195 5191 5186 5181 5175 5170 5165 5160 5155 5151 5147 5144 5140 5136 5132 5128 5124 5120 5116 5113 5109 5105 5101 5098 5094 5091 5088 5086 5084 5083 5082 5081 5081 5080 5081 5081 5082 5083 5085 5087 5089 5091 5094 5097 5101 5105 5110 5114 5118 5123 5128 5132 5135 5140 5147 5153 5159 5165 5171 5176 5181 5186 5190 5194 5197 5200 5203 5206 5209 5211 5214 5216 5218 5220 5222 5224 5227 5229 5231 5233 5235 5236 5237
5202 5198 5194 5189 5185 5180 5175 5170 5165 5160 5155 5150 5146 5142 5138 5134 5131 5127 5123 5119 5116 5112 5109 5106 5102 5099 5096 5093 5090 5087 5085 5083 5082 5081 5081 5080 5080 5080 5081 5082 5084 5085 5087 5090 5092 5095 5099 5102 5106 5111 5115 5119 5123 5127 5131 5136 5142 5148 5153 5159 5165 5170 5175 5179 5184 5187 5190 5192 5195 5198 5201 5204 5206 5208 5210 5211 5213 5216 5218 5220 5222 5224 5226 5227 5228
5200 5196 5192 5188 5184 5179 5174 5169 5164 5159 5155 5150 5145 5141 5137 5133 5129 5126 5122 5119 5116 5112 5109 5106 5103 5100 5097 5094 5092 5089 5087 5085 5083 5082 5081 5081 5081 5081 5081 5082 5083 5085 5086 5088 5091 5094 5097 5100 5104 5108 5112 5116 5119 5123 5127 5133 5138 5143 5149 5154 5159 5164 5169 5173 5177 5180 5182 5185 5188 5190 5193 5196 5198 5200 5202 5204 5205 5208 5210 5211 5213 5215 5216 5217 5218
5198 5194 5190 5186 5182 5177 5173 5168 5163 5159 5154 5149 5145 5140 5136 5132 5128 5124 5121 5118 5115 5112 5109 5107 5104 5101 5098 5095 5093 5091 5088 5086 5085 5083 5082 5082 5081 5081 5081 5082 5083 5084 5086 5088 5090 5093 5095 5098 5102 5105 5109 5112 5116 5120 5124 5129 5134 5139 5145 5150 5154 5159 5163 5166 5170 5173 5175 5178 5181 5183 5186 5188 5191 5193 5195 5197 5198 5200 5202 5203 5205 5206 5207 5208 5209
5195 5192 5188 5184 5180 5176 5172 5167 5162 5158 5153 5149 5144 5140 5136 5131 5127 5124 5120 5117 5114 5112 5109 5107 5104 5102 5099 5096 5094 5092 5090 5088 5086 5085 5084 5084 5083 5083 5083 5083 5083 5084 5086 5087 5089 5092 5094 5096 5099 5102 5106 5109 5113 5118 5122 5126 5131 5135 5140 5145 5149 5153 5156 5160 5163 5166 5169 5172 5175 5177 5179 5182 5184 5185 5187 5189 5191 5193 5195 5196 5197 5198 5198 5199 5200
5193 5190 5186 5182 5178 5174 5170 5165 5161 5157 5152 5148 5143 5139 5135 5131 5127 5123 5120 5117 5114 5111 5109 5107 5104 5102 5100 5097 5095 5093 5091 5089 5088 5086 5086 5085 5085 5084 5084 5085 5085 5085 5086 5088 5089 5091 5093 5095 5097 5100 5104 5107 5111 5115 5119 5123 5128 5132 5136 5139 5143 5147 5150 5153 5156 5159 5162 5165 5168 5170 5172 5175 5176 5178 5180 5182 5183 5185 5186 5188 5189 5190 5190 5191 5191
5190 5187 5184 5180 5176 5172 5168 5163 5159 5155 5151 5147 5143 5139 5135 5131 5127 5123 5120 5116 5113 5111 5108 5106 5104 5102 5100 5098 5096 5094 5092 5091 5089 5088 5087 5086 5086 5085 5085 5086 5086 5087 5087 5088 5089 5091 5092 5095 5097 5100 5102 5106 5109 5112 5116 5120 5123 5127 5131 5134 5137 5141 5144 5147 5150 5153 5156 5158 5161 5163 5165 5167 5169 5171 5173 5174 5175 5177 5178 5180 5181 5182 5183 5183 5184
5187 5184 5181 5178 5174 5170 5166 5162 5158 5154 5150 5146 5142 5138 5134 5131 5127 5124 5120 5116 5113 5110 5108 5106 5104 5102 5100 5098 5096 5095 5093 5092 5090 5089 5088 5087 5086 5086 5086 5086 5087 5087 5088 5089 5090 5091 5093 5094 5096 5099 5101 5104 5107 5110 5113 5116 5119 5122 5125 5129 5132 5135 5138 5141 5144 5147 5150 5152 5155 5157 5159 5161 5162 5164 5166 5167 5168 5170 5171 5172 5173 5174 5175 5176 5176